This demonstration page uses our WeatherBlox Daily Observations layout. Learn more.

Left ArrowRight Arrow

47.50024, -111.30081

Hourly Observations for January 20, 2022

Temp ( °F °C ) Dew Point ( °F °C ) Humidity (%) Winds ( mph kmh ) Pressure ( in mb ) Visibility ( mi km ) Precip ( " mm )
12:53 am 00:53 Clear 20 -6.7 13 -10.6 74 74 SSW 15 24 30.37 1029 10 16 0.00 0.00
1:53 am 01:53 Clear 21 -6.1 14 -10 74 74 SSW 13 20 30.36 1028 10 16 0.00 0.00
2:53 am 02:53 Clear 24 -4.4 17 -8.3 75 75 SSW 15 24 30.32 1027 10 16 0.00 0.00
3:53 am 03:53 Clear 26 -3.3 18 -7.8 71 71 SSW 17 28 30.29 1026 10 16 0.00 0.00
4:53 am 04:53 Clear 26 -3.3 18 -7.8 71 71 SSW 15 24 30.29 1026 10 16 0.00 0.00
5:53 am 05:53 Clear 30 -1.1 21 -6.1 69 69 SW 18 30 30.25 1025 10 16 0.00 0.00
6:53 am 06:53 Clear 33 0.6 23 -5 66 66 SW 24 39 30.21 1023 10 16 0.00 0.00
7:53 am 07:53 Clear 34 1.1 23 -5 64 64 SW 23 37 30.18 1022 10 16 0.00 0.00
8:53 am 08:53 Mostly Sunny 35 1.7 24 -4.4 64 64 SW 25 41 30.14 1021 10 16 0.00 0.00
9:53 am 09:53 Sunny 36 2.2 25 -3.9 64 64 SW 23 37 30.12 1020 10 16 0.00 0.00
10:53 am 10:53 Sunny 38 3.3 27 -2.8 65 65 SSW 23 37 30.06 1018 10 16 0.00 0.00
11:53 am 11:53 Mostly Cloudy 38 3.3 28 -2.2 68 68 SSW 25 41 30.00 1016 10 16 0.00 0.00
12:53 pm 12:53 Cloudy 39 3.9 29 -1.7 67 67 SW 32 52 29.96 1015 10 16 0.00 0.00
1:53 pm 13:53 Cloudy 39 3.9 29 -1.7 67 67 SW 29 46 29.94 1014 10 16 0.00 0.00
2:53 pm 14:53 Mostly Cloudy 39 3.9 30 -1.1 70 70 SW 23 37 29.91 1013 10 16 0.00 0.00
3:53 pm 15:53 Sunny 40 4.4 30 -1.1 68 68 SW 24 39 29.89 1012 10 16 0.00 0.00
4:53 pm 16:53 Sunny 41 5 31 -0.6 67 67 SW 22 35 29.88 1012 10 16 0.00 0.00
5:53 pm 17:53 Clear 40 4.4 31 -0.6 70 70 SW 23 37 29.86 1011 10 16 0.00 0.00
6:53 pm 18:53 Clear 40 4.4 30 -1.1 68 68 SW 16 26 29.87 1012 10 16 0.00 0.00
7:53 pm 19:53 Clear 40 4.4 29 -1.7 65 65 WSW 23 37 29.85 1011 10 16 0.00 0.00
8:53 pm 20:53 Clear 39 3.9 29 -1.7 67 67 SW 14 22 29.88 1012 10 16 0.00 0.00
9:53 pm 21:53 Clear 37 2.8 29 -1.7 73 73 SSW 15 24 29.90 1013 10 16 0.00 0.00
10:53 pm 22:53 Clear 36 2.2 28 -2.2 73 73 WSW 13 20 29.93 1014 10 16 0.00 0.00
11:53 pm 23:53 Mostly Clear 40 4.4 28 -2.2 63 63 W 14 22 29.96 1015 10 16 0.00 0.00

Powered by AerisWeather